Regional Weather Roundup
Issued by NWS

Home | Current Version | Previous Version | Graphics & Text | Print | Product List | Glossary On
Versions: 1 2 3 4 5 6 7 8 9 10 11 12 13 14 15 16 17 18 19 20 21 22 23 24 25 26 27 28 29 30 31 32 33 34 35 36 37 38 39 40 41 42 43 44 45 46 47 48 49 50
000
ASUS43 KFSD 140502
RWRSD

WEATHER ROUNDUP FOR SOUTH DAKOTA
NATIONAL WEATHER SERVICE SIOUX FALLS SD
1100 PM CST WED DEC 13 2017

NOTE: "FAIR" INDICATES FEW OR NO CLOUDS BELOW 12,000 FEET WITH NO
SIGNIFICANT WEATHER AND/OR OBSTRUCTIONS TO VISIBILITY.


SDZ001>005-009-010-012>017-140600-
NORTHWEST AND NORTH CENTRAL SOUTH DAKOTA

CITY           SKY/WX    TMP DP  RH WIND       PRES   REMARKS
BUFFALO          N/A     35  31  85 W20       29.99S WCI  24
FAITH            N/A     35  26  69 NW15      30.03S WCI  25
MOBRIDGE       CLEAR     26  22  84 NW6       29.98F WCI  19
$$

SDZ012>016-024>037-041>051-057-063-072>074-140600-
SOUTHWEST AND SOUTH CENTRAL SOUTH DAKOTA

CITY           SKY/WX    TMP DP  RH WIND       PRES   REMARKS
RAPID CTY ARPT CLOUDY    38  23  55 NW25G35   30.08R
PIERRE         CLOUDY    28  25  88 NW8       30.04R WCI  20
CUSTER         CLOUDY    31  19  61 NW9       30.06R WCI  23
ELLSWORTH AFB  PTCLDY    38  26  62 NW29G37   30.07
PHILIP         CLOUDY    37  25  61 NW10      30.06S
PINE RIDGE     CLOUDY    38  25  59 N7        30.10R
SPEARFISH      MOCLDY    36  23  60 W18G28    30.12S
WINNER         FAIR      31  25  78 NW7       30.05R WCI  24
$$

SDZ004>011-016>023-039-040-140600-
NORTHEAST SOUTH DAKOTA

CITY           SKY/WX    TMP DP  RH WIND       PRES   REMARKS
ABERDEEN       FRZ RAIN  29  29 100 NE5       29.99S FOG     WCI  24
WATERTOWN      CLOUDY    25  24  96 N8        29.95R WCI  16
BROOKINGS      CLOUDY    26  23  88 NE8       29.96R WCI  18
SISSETON         N/A     23  19  85 N13       29.98R WCI  11
$$

SDZ017-020-022-023-036>040-048>070-140600-
SOUTHEAST SOUTH DAKOTA

CITY           SKY/WX    TMP DP  RH WIND       PRES   REMARKS
SIOUX FALLS    CLOUDY    30  27  88 N8        29.97R WCI  22
HURON          CLOUDY    33  26  75 NW8       29.99R WCI  26
CHAMBERLAIN    CLOUDY    36  29  76 W6        30.03R
MITCHELL       CLOUDY    35  24  64 NW9       30.02R WCI  28
YANKTON        CLOUDY    35  24  64 NW13      30.00R WCI  26
$$

ABBREVIATIONS USED IN REMARKS
   TC - TEMPERATURE IN CELSIUS
  WCI - WIND CHILL INDEX
   HX - HEAT INDEX
  VSB - VISIBILITY




USA.gov is the U.S. government's official web portal to all federal, state and local government web resources and services.